Temp
-12 -12 -12 -12 -12 -12 -12 -12 -12 -12 -12 -13 -13 -13 -13 -14 -14 -13 -13 -12 -12 -12 -12 -12 -13 -13 -13 -13 -13 -13 -12 -12 -12 -12 -12 -12 -11 -11 -12 -12 -12 -12 -12
-13 -12 -12 -13 -13 -13 -13 -13 -13 -13 -13 -14 -14 -15 -15 -15 -15 -15 -14 -14 -13 -13 -13 -14 -13 -13 -13 -13 -13 -12 -12 -12 -12 -12 -12 -12 -13 -12 -13 -12 -12 -12 -12
-13 -13 -13 -13 -13 -14 -14 -14 -15 -15 -15 -15 -16 -16 -17 -18 -18 -18 -17 -16 -16 -14 -13 -14 -14 -14 -14 -14 -13 -13 -12 -12 -12 -12 -12 -12 -11 -12 -12 -12 -12 -12 -12
-14 -14 -14 -14 -14 -14 -15 -16 -16 -16 -17 -17 -17 -18 -18 -18 -18 -18 -18 -17 -17 -17 -16 -15 -15 -15 -15 -14 -14 -14 -13 -12 -12 -12 -12 -12 -12 -11 -11 -12 -12 -12 -12
-15 -15 -15 -15 -16 -16 -16 -16 -17 -17 -17 -17 -18 -18 -18 -18 -18 -18 -18 -18 -17 -17 -17 -17 -16 -15 -15 -14 -14 -13 -13 -13 -13 -13 -12 -12 -12 -12 -11 -11 -12 -12 -12
-16 -16 -16 -16 -16 -17 -17 -17 -18 -18 -18 -18 -18 -18 -18 -18 -17 -18 -18 -18 -18 -17 -18 -17 -16 -16 -16 -15 -14 -14 -14 -13 -13 -13 -13 -13 -13 -13 -13 -12 -11 -12 -12
-17 -17 -17 -17 -17 -17 -17 -17 -18 -18 -19 -19 -19 -18 -18 -18 -18 -18 -18 -18 -17 -18 -17 -17 -17 -16 -16 -15 -15 -14 -15 -14 -13 -13 -13 -13 -13 -13 -13 -13 -13 -12 -13
-18 -18 -18 -18 -18 -18 -18 -17 -17 -17 -18 -19 -19 -18 -18 -18 -18 -18 -18 -18 -18 -19 -18 -17 -17 -16 -16 -15 -15 -15 -15 -15 -14 -14 -14 -14 -14 -14 -14 -14 -14 -13 -13
-19 -19 -19 -19 -19 -19 -19 -19 -18 -18 -17 -18 -19 -18 -19 -18 -18 -18 -18 -18 -18 -18 -18 -18 -17 -17 -17 -16 -16 -16 -15 -16 -15 -14 -15 -14 -14 -14 -14 -14 -13 -13 -13
-20 -20 -20 -20 -20 -20 -20 -19 -19 -19 -18 -19 -19 -19 -18 -19 -18 -18 -18 -18 -18 -18 -18 -17 -17 -17 -17 -17 -16 -16 -15 -15 -15 -15 -15 -15 -15 -14 -14 -14 -14 -14 -14
-20 -20 -21 -21 -21 -21 -20 -20 -20 -20 -20 -19 -18 -18 -18 -18 -18 -18 -18 -18 -18 -19 -18 -17 -17 -16 -17 -17 -17 -17 -17 -16 -16 -16 -16 -15 -15 -15 -15 -15 -14 -14 -14
-21 -21 -21 -21 -21 -21 -21 -20 -20 -20 -20 -20 -20 -20 -19 -19 -18 -18 -18 -19 -19 -19 -18 -17 -17 -17 -16 -16 -17 -18 -17 -17 -17 -16 -16 -16 -16 -16 -15 -15 -15 -14 -14
-21 -22 -22 -22 -22 -22 -21 -21 -20 -20 -20 -19 -19 -19 -19 -19 -19 -19 -19 -19 -18 -18 -17 -17 -17 -17 -16 -16 -16 -16 -17 -17 -17 -16 -16 -16 -15 -15 -15 -15 -15 -14 -14
-22 -22 -22 -23 -22 -22 -21 -21 -21 -20 -20 -19 -19 -19 -19 -19 -19 -19 -18 -18 -18 -18 -18 -18 -17 -17 -17 -17 -17 -17 -17 -17 -17 -17 -16 -16 -16 -16 -15 -15 -15 -14 -14
-23 -23 -23 -22 -22 -22 -21 -21 -21 -21 -20 -20 -20 -19 -19 -19 -19 -19 -19 -19 -18 -18 -18 -18 -18 -18 -18 -18 -17 -17 -17 -17 -17 -17 -16 -16 -16 -16 -15 -15 -14 -14 -14
-23 -23 -23 -23 -22 -22 -22 -22 -21 -21 -20 -20 -20 -20 -20 -20 -20 -19 -19 -19 -18 -19 -19 -19 -18 -18 -18 -18 -18 -18 -18 -17 -17 -17 -16 -16 -16 -16 -15 -15 -14 -14 -14
-23 -23 -23 -23 -23 -23 -22 -22 -22 -22 -21 -20 -20 -20 -20 -20 -20 -20 -20 -20 -20 -19 -19 -19 -18 -18 -18 -18 -17 -17 -17 -17 -17 -17 -17 -16 -16 -16 -15 -15 -14 -14 -15
-23 -23 -23 -23 -23 -24 -24 -24 -24 -24 -23 -23 -22 -22 -22 -22 -22 -22 -23 -22 -22 -22 -21 -21 -20 -20 -19 -19 -18 -18 -17 -17 -17 -17 -16 -16 -16 -16 -15 -15 -14 -15 -15
-23 -24 -24 -24 -24 -25 -24 -24 -25 -25 -25 -25 -25 -24 -24 -24 -24 -24 -24 -23 -23 -23 -23 -23 -23 -22 -22 -21 -21 -20 -19 -18 -17 -16 -16 -16 -16 -15 -15 -15 -15 -16 -16
-24 -24 -24 -25 -25 -24 -24 -25 -25 -25 -25 -25 -25 -25 -24 -24 -24 -24 -24 -24 -25 -24 -24 -24 -24 -23 -23 -23 -22 -22 -21 -21 -20 -20 -19 -17 -16 -16 -15 -16 -16 -16 -16
-24 -24 -24 -24 -25 -24 -24 -25 -24 -25 -25 -25 -25 -25 -25 -25 -25 -25 -25 -25 -24 -24 -24 -24 -24 -23 -23 -23 -23 -23 -23 -22 -22 -22 -21 -20 -20 -20 -18 -17 -16 -16 -16
-25 -24 -24 -24 -25 -25 -24 -25 -25 -25 -25 -25 -25 -26 -25 -25 -25 -25 -25 -24 -24 -24 -24 -24 -23 -23 -23 -23 -22 -22 -22 -22 -22 -22 -22 -22 -21 -21 -20 -19 -18 -17 -16
-24 -24 -24 -24 -24 -25 -25 -25 -25 -25 -25 -26 -26 -26 -25 -25 -25 -25 -24 -24 -24 -24 -24 -24 -23 -23 -23 -22 -22 -22 -22 -22 -21 -22 -21 -21 -21 -21 -21 -21 -20 -19 -18
-24 -24 -24 -24 -25 -25 -25 -25 -25 -26 -26 -26 -26 -25 -25 -25 -25 -24 -24 -24 -24 -24 -24 -24 -23 -23 -23 -23 -23 -23 -23 -23 -22 -22 -22 -22 -21 -21 -21 -21 -21 -22 -20
-24 -24 -24 -24 -25 -25 -25 -25 -25 -25 -26 -25 -25 -25 -25 -25 -25 -25 -25 -25 -24 -24 -24 -24 -23 -23 -23 -23 -23 -23 -23 -23 -22 -22 -22 -22 -21 -21 -21 -21 -20 -20 -20
-24 -24 -25 -25 -25 -25 -25 -25 -25 -25 -25 -25 -25 -25 -25 -25 -25 -24 -24 -24 -24 -24 -23 -23 -23 -23 -23 -23 -23 -23 -23 -22 -22 -22 -22 -22 -22 -22 -21 -21 -21 -20 -20
Height
5737 5737 5735 5733 5731 5730 5727 5725 5723 5721 5720 5719 5719 5718 5717 5716 5717 5719 5722 5726 5728 5727 5728 5731 5734 5736 5738 5739 5740 5742 5742 5744 5745 5744 5746 5740 5746 5746 5753 5756 5758 5759 5763
5723 5720 5718 5717 5714 5712 5709 5707 5705 5703 5702 5701 5700 5699 5699 5700 5701 5702 5705 5706 5710 5712 5713 5715 5717 5721 5724 5726 5728 5729 5731 5732 5731 5733 5733 5727 5734 5743 5747 5749 5751 5752 5755
5709 5707 5705 5703 5701 5698 5694 5691 5689 5686 5685 5684 5683 5683 5682 5682 5684 5686 5689 5689 5692 5694 5697 5700 5703 5706 5709 5713 5716 5718 5720 5720 5721 5720 5722 5726 5731 5733 5739 5740 5742 5744 5744
5694 5693 5690 5688 5684 5682 5679 5676 5673 5670 5669 5668 5667 5666 5667 5670 5673 5675 5677 5679 5679 5679 5681 5685 5688 5692 5694 5698 5701 5705 5708 5710 5710 5711 5711 5712 5716 5721 5727 5730 5732 5732 5735
5680 5679 5677 5674 5671 5667 5665 5663 5660 5657 5655 5654 5653 5653 5655 5657 5660 5662 5666 5668 5668 5667 5668 5670 5673 5677 5680 5683 5687 5691 5694 5697 5699 5700 5703 5705 5707 5709 5712 5716 5719 5721 5723
5668 5666 5664 5662 5659 5655 5653 5651 5648 5645 5644 5644 5642 5642 5645 5643 5648 5652 5654 5658 5658 5655 5656 5657 5659 5661 5665 5669 5672 5676 5680 5683 5686 5688 5690 5694 5696 5697 5698 5701 5705 5709 5713
5657 5655 5652 5649 5645 5643 5642 5639 5638 5632 5635 5634 5634 5633 5631 5634 5639 5642 5646 5647 5647 5645 5645 5645 5645 5647 5650 5654 5659 5662 5665 5668 5672 5675 5677 5680 5683 5685 5687 5688 5691 5696 5700
5646 5645 5642 5640 5637 5633 5630 5628 5626 5623 5624 5621 5623 5622 5622 5627 5631 5635 5638 5638 5638 5636 5635 5634 5633 5635 5637 5641 5644 5648 5651 5654 5658 5661 5664 5667 5670 5672 5675 5677 5678 5679 5683
5637 5636 5633 5631 5628 5626 5624 5620 5617 5616 5613 5612 5615 5615 5617 5619 5622 5625 5627 5630 5630 5629 5628 5626 5624 5622 5623 5625 5629 5633 5638 5642 5645 5648 5651 5654 5657 5659 5662 5664 5664 5665 5667
5629 5628 5625 5623 5621 5619 5617 5614 5610 5609 5607 5608 5607 5607 5609 5612 5615 5617 5619 5619 5620 5620 5621 5620 5617 5614 5612 5612 5615 5619 5623 5628 5631 5635 5638 5640 5644 5646 5649 5650 5651 5653 5654
5622 5620 5618 5617 5614 5612 5610 5607 5605 5603 5600 5598 5597 5597 5599 5603 5607 5608 5609 5610 5610 5611 5612 5611 5610 5607 5603 5602 5604 5607 5610 5615 5618 5621 5625 5627 5630 5633 5635 5636 5638 5640 5641
5614 5613 5611 5608 5607 5605 5603 5601 5599 5597 5596 5594 5591 5590 5590 5595 5597 5597 5599 5600 5601 5604 5604 5603 5601 5598 5596 5594 5595 5596 5599 5602 5606 5608 5610 5612 5616 5620 5620 5622 5625 5625 5626
5606 5604 5602 5600 5598 5596 5595 5592 5589 5587 5586 5587 5587 5587 5586 5586 5588 5590 5591 5592 5593 5594 5594 5593 5592 5589 5588 5586 5586 5586 5587 5589 5593 5595 5598 5600 5602 5604 5607 5609 5609 5611 5611
5597 5596 5594 5593 5591 5589 5587 5584 5582 5579 5577 5577 5577 5577 5578 5579 5580 5580 5581 5582 5582 5582 5582 5582 5581 5578 5577 5576 5577 5577 5577 5579 5581 5583 5585 5587 5589 5592 5593 5594 5595 5595 5594
5589 5588 5586 5585 5582 5580 5577 5575 5573 5571 5570 5568 5567 5568 5569 5569 5570 5571 5571 5572 5571 5571 5570 5570 5569 5568 5567 5566 5566 5567 5567 5567 5568 5570 5572 5573 5574 5576 5578 5579 5579 5578 5578
5581 5580 5578 5575 5573 5570 5567 5565 5562 5560 5559 5558 5558 5558 5556 5557 5560 5560 5561 5560 5560 5560 5559 5558 5557 5557 5557 5557 5556 5556 5556 5556 5556 5558 5559 5560 5562 5563 5563 5564 5563 5563 5564
5572 5570 5568 5566 5564 5561 5559 5556 5553 5550 5549 5547 5546 5546 5547 5548 5549 5550 5550 5549 5549 5549 5548 5547 5546 5546 5544 5544 5544 5544 5544 5545 5545 5545 5547 5548 5548 5549 5549 5549 5547 5548 5549
5563 5561 5559 5558 5555 5553 5550 5546 5544 5542 5540 5538 5537 5539 5538 5539 5540 5541 5542 5542 5541 5540 5539 5538 5537 5535 5534 5533 5532 5533 5532 5534 5534 5534 5534 5534 5533 5534 5534 5533 5533 5533 5534
5553 5552 5551 5550 5548 5546 5544 5541 5538 5536 5534 5532 5532 5533 5534 5535 5536 5537 5537 5537 5537 5536 5535 5533 5532 5530 5528 5525 5523 5522 5521 5521 5521 5520 5519 5519 5519 5520 5519 5518 5518 5518 5519
5545 5544 5543 5543 5542 5541 5538 5536 5535 5534 5532 5532 5532 5532 5532 5532 5532 5534 5534 5534 5534 5533 5531 5530 5528 5526 5523 5521 5518 5515 5512 5510 5509 5507 5505 5504 5504 5504 5502 5503 5503 5504 5505
5537 5537 5537 5537 5536 5535 5534 5533 5533 5531 5531 5531 5531 5530 5530 5531 5532 5533 5533 5533 5532 5531 5529 5527 5524 5522 5520 5517 5515 5512 5509 5506 5503 5500 5498 5495 5493 5490 5488 5488 5489 5490 5491
5531 5531 5531 5531 5531 5531 5531 5531 5530 5530 5531 5531 5530 5530 5531 5531 5531 5532 5532 5530 5529 5527 5525 5523 5521 5519 5517 5515 5512 5509 5507 5503 5500 5496 5493 5490 5487 5483 5480 5478 5477 5475 5476
5525 5525 5526 5527 5528 5528 5529 5530 5530 5530 5530 5530 5530 5530 5530 5531 5531 5530 5529 5527 5525 5523 5521 5519 5517 5514 5511 5508 5506 5503 5501 5497 5494 5491 5488 5484 5481 5478 5475 5471 5467 5466 5464
5520 5521 5523 5524 5525 5526 5527 5528 5529 5529 5529 5529 5529 5529 5529 5529 5528 5527 5525 5524 5522 5519 5517 5515 5512 5509 5506 5503 5501 5497 5494 5491 5488 5484 5481 5478 5474 5472 5468 5465 5461 5459 5456
5515 5517 5519 5521 5522 5524 5525 5526 5527 5527 5528 5528 5527 5527 5527 5526 5525 5524 5522 5520 5518 5516 5512 5509 5507 5504 5502 5499 5497 5493 5490 5486 5482 5478 5474 5470 5465 5462 5458 5456 5453 5451 5449
5512 5514 5516 5518 5520 5522 5523 5524 5524 5525 5525 5525 5525 5524 5523 5523 5521 5520 5517 5515 5512 5510 5507 5505 5502 5499 5496 5492 5488 5484 5480 5476 5472 5468 5464 5461 5457 5453 5448 5445 5442 5439 5437
Wind_Speed
52 53 54 54 57 59 63 66 69 70 71 69 67 69 69 63 63 61 61 64 66 68 65 65 65 61 57 54 53 53 54 53 52 47 60 49 26 46 45 36 29 37 32
55 56 58 59 61 64 67 69 70 71 70 70 63 60 62 63 61 61 59 61 65 67 67 64 65 64 61 57 56 55 54 54 54 55 48 48 42 42 40 30 33 30 36
58 59 61 61 62 63 63 61 60 60 59 58 55 54 58 57 55 49 54 59 57 63 65 66 63 63 61 59 57 57 56 55 54 56 56 53 49 48 43 41 39 37 36
59 60 60 62 62 63 60 55 55 49 46 46 48 49 51 51 51 48 43 44 44 47 55 61 62 61 62 60 59 58 57 57 55 55 55 54 52 50 47 43 42 41 40
55 54 53 53 53 54 54 52 47 41 37 38 38 46 49 45 48 50 49 37 37 37 41 48 58 60 61 58 59 59 59 56 56 54 54 54 53 52 49 44 42 43 45
50 48 46 48 49 51 47 40 33 31 29 26 32 34 34 43 46 45 28 36 33 31 32 39 47 52 63 60 57 58 56 56 56 54 53 52 52 51 51 47 44 45 45
43 42 43 44 48 46 43 42 36 31 32 29 35 25 34 29 42 40 34 31 35 36 37 39 39 42 52 59 62 58 54 55 55 53 52 51 50 50 49 50 49 48 48
40 39 40 40 37 28 30 38 29 30 38 37 43 28 20 33 41 49 37 26 28 18 22 30 33 37 42 52 57 58 55 52 52 51 51 51 50 49 50 51 51 52 52
35 36 37 34 33 35 34 23 25 30 31 36 38 26 24 25 27 27 29 30 19 18 18 23 28 32 40 43 46 58 56 50 50 51 51 52 52 52 50 52 52 53 53
35 34 33 29 32 33 34 28 29 24 21 29 36 38 33 28 25 27 29 29 33 19 22 22 25 30 30 39 46 51 57 56 50 48 49 49 50 50 50 50 51 53 52
31 30 30 33 30 31 32 32 27 30 31 31 32 31 39 38 34 35 34 34 35 23 26 25 23 24 26 33 38 44 51 60 53 54 51 49 49 48 52 51 53 54 52
30 29 30 30 31 34 35 33 30 29 29 29 30 33 29 33 27 24 23 21 20 25 27 28 29 24 23 26 32 41 40 39 42 44 47 49 51 47 46 47 48 48 51
33 33 31 30 30 31 34 36 35 33 32 30 29 26 25 22 20 21 24 26 29 29 30 28 26 23 23 25 28 34 37 40 43 42 44 45 44 45 46 47 48 51 53
34 34 33 32 32 33 34 35 33 33 33 32 31 29 28 27 28 29 31 34 35 37 39 37 34 29 26 24 28 34 36 40 41 42 43 43 43 44 48 52 51 53 52
35 35 34 35 35 36 36 35 33 32 30 30 31 32 32 31 34 35 36 39 41 38 39 36 33 30 28 27 26 32 37 40 41 42 42 44 45 46 49 49 50 51 52
33 34 34 33 34 35 34 33 31 31 28 28 29 31 29 30 32 32 33 33 34 34 34 34 34 34 33 30 29 29 34 37 39 41 43 41 44 47 49 49 49 49 52
33 33 33 33 33 33 31 29 27 26 24 24 24 24 23 24 24 25 26 26 27 29 31 32 35 37 36 34 32 31 31 35 38 40 43 45 46 48 49 50 49 52 51
33 32 31 29 28 25 23 22 20 21 18 15 16 18 18 18 18 16 16 16 15 17 18 20 22 24 26 28 29 31 29 33 37 40 43 46 47 48 49 48 49 50 52
29 28 26 24 20 21 19 15 13 12 12 8 7 10 11 10 12 12 9 10 10 11 10 10 13 16 18 21 22 24 25 28 33 35 38 41 45 47 46 46 49 47 47
25 23 23 20 18 18 14 14 12 11 8 6 8 8 13 16 12 7 3 1 3 4 6 9 10 9 9 11 13 17 19 22 26 29 32 36 39 43 44 44 45 44 48
22 21 18 16 17 12 8 6 6 6 4 7 12 14 9 4 3 3 3 4 5 8 11 13 13 13 13 14 16 18 20 20 17 17 16 20 26 32 36 40 44 43 46
18 16 15 12 9 7 7 6 2 4 5 8 10 7 4 3 1 1 5 8 11 13 13 13 12 11 11 12 13 15 17 18 19 22 23 24 23 21 21 30 38 42 48
16 12 10 8 8 4 2 4 9 11 12 10 4 2 2 1 3 7 11 12 13 13 14 14 15 16 17 18 18 19 20 20 20 20 21 22 23 25 27 28 23 29 36
13 13 11 9 4 5 5 7 8 5 4 1 2 2 2 4 8 11 13 14 15 16 16 17 18 19 19 20 24 25 25 26 26 27 27 27 27 27 27 28 30 32 27
14 13 11 9 7 5 7 9 5 2 3 3 4 4 6 8 12 15 16 17 18 20 21 22 21 20 21 22 23 24 26 28 29 31 32 33 33 34 33 32 31 31 30
12 12 11 11 7 9 8 6 5 4 4 5 6 9 10 13 16 19 20 20 21 22 21 20 22 24 25 27 29 32 34 36 37 38 39 39 38 38 38 38 38 37 36
Wind_Direction
280 280 281 284 285 285 285 286 286 286 285 281 277 274 273 269 264 262 257 257 259 254 255 256 259 258 256 255 256 260 263 264 264 266 274 267 272 258 264 263 259 281 256
286 288 289 290 291 291 290 288 287 285 284 282 278 273 268 264 261 260 258 254 255 257 255 255 256 256 256 256 255 255 258 262 265 267 264 276 271 265 273 272 263 266 263
288 290 290 290 290 289 288 287 285 282 281 278 276 271 259 255 258 262 255 253 256 253 254 253 255 257 255 255 254 254 256 258 261 265 267 265 262 266 262 263 261 260 261
292 292 292 291 290 289 288 287 285 283 276 273 269 263 260 253 262 261 262 264 264 262 257 253 250 251 253 254 254 255 254 255 258 261 263 264 262 260 257 256 258 262 263
293 292 291 288 286 285 285 284 283 272 268 268 266 263 258 249 255 257 262 266 269 269 266 262 252 251 250 254 254 255 256 256 257 258 258 259 258 258 258 256 257 260 264
293 290 287 284 285 285 288 280 281 273 270 271 274 264 255 246 248 251 257 266 276 279 275 272 260 255 250 251 255 256 256 256 257 256 255 255 255 257 259 257 258 260 262
291 288 285 284 289 294 289 272 283 284 276 275 284 268 267 275 251 255 255 267 278 278 273 266 258 258 255 253 250 253 249 254 256 256 255 255 256 257 259 262 264 265 265
289 287 286 295 300 303 302 283 276 283 287 269 274 273 274 263 259 271 259 276 277 285 288 275 269 260 257 252 250 251 249 247 252 255 257 257 258 260 262 265 267 271 271
290 291 293 299 296 296 304 309 299 285 286 276 277 269 274 261 253 254 250 255 276 281 299 302 295 284 263 254 254 250 246 244 246 249 252 255 257 260 262 265 267 270 271
292 293 297 295 296 303 302 303 312 318 296 292 289 274 262 271 263 259 255 263 268 270 284 292 299 285 283 262 250 250 248 250 246 249 250 252 256 258 260 264 268 267 269
292 295 298 296 293 293 299 303 306 302 311 310 301 289 275 262 259 266 269 273 270 271 274 293 305 291 287 278 259 255 253 246 251 251 251 255 257 262 264 263 263 265 272
291 290 294 297 291 287 292 296 300 303 304 309 295 288 273 265 268 264 257 273 274 272 285 287 288 300 299 280 267 256 254 253 258 258 259 260 254 259 262 263 265 271 273
291 292 296 296 297 296 292 294 297 298 296 297 300 288 273 250 268 277 281 282 282 284 287 292 295 297 301 289 276 268 264 257 256 259 258 258 259 258 258 261 268 271 273
287 288 289 290 294 296 295 293 290 287 283 282 282 286 282 285 285 280 276 278 280 285 288 292 294 297 291 290 278 268 264 261 259 258 258 258 258 260 262 265 270 273 276
282 282 288 289 294 296 296 291 287 283 277 272 272 270 265 269 268 271 269 272 276 279 283 283 283 284 282 281 276 270 265 263 263 261 262 261 262 263 264 266 271 275 279
281 283 290 293 296 298 296 292 292 289 284 275 268 265 266 265 263 264 265 268 273 275 277 279 279 279 277 275 273 271 268 265 261 260 259 261 259 262 267 267 271 278 277
281 286 291 294 296 298 299 297 294 289 285 279 272 264 262 261 259 260 263 267 270 276 278 279 280 279 278 277 277 279 276 268 265 261 258 258 258 259 265 268 272 281 271
283 286 289 294 297 298 300 298 295 297 291 278 261 252 245 242 246 253 264 272 278 279 285 293 291 289 292 288 285 282 274 270 268 264 260 258 260 261 263 266 272 274 267
282 285 287 291 288 298 300 299 304 302 300 283 234 205 206 207 231 237 236 269 286 286 282 295 303 309 309 307 301 295 288 281 274 266 264 264 262 261 262 265 270 265 267
279 280 283 282 286 295 297 287 286 288 281 230 206 200 212 207 213 230 204 162 333 321 330 330 332 327 340 328 323 314 300 293 289 291 287 278 272 269 271 268 264 264 266
274 279 279 277 285 285 287 272 278 259 238 241 224 197 160 118 57 24 350 307 292 303 302 303 312 319 330 339 342 343 349 345 341 333 318 282 286 287 279 273 265 267 252
272 274 273 272 267 261 283 281 208 207 204 150 115 101 109 107 97 318 302 300 302 303 305 305 307 309 316 317 323 327 323 320 323 329 328 331 327 316 282 270 267 265 250
267 257 255 244 252 252 193 201 184 192 165 129 119 129 172 197 292 304 308 307 308 311 315 314 313 316 322 327 325 324 323 323 322 321 319 316 313 314 318 320 293 258 251
245 234 244 241 213 196 211 224 193 142 79 86 216 213 258 286 302 311 314 313 312 311 311 312 317 320 320 320 320 322 322 319 319 320 320 318 317 314 311 309 313 313 294
222 229 214 213 196 215 218 186 175 208 231 242 242 260 288 301 308 306 306 306 308 310 312 312 312 313 312 311 310 310 312 313 313 313 313 312 313 312 311 307 304 300 299
199 201 208 198 216 216 196 212 232 252 265 277 283 284 289 292 294 300 304 306 307 311 310 309 309 309 311 312 314 315 315 314 314 314 313 309 307 306 306 304 301 298 296